Weather in Kalinovoe Ozero

Russia / Krasnodar Krai     43°36′58″N   39°53′09″E
temp.,
°C
wind,
m/s
gust,
m/s
humid.,
%
clouds,
%
prec.,
mm/h
press.,
hPa
HPBL,
m
13 may, thu
thu1300:00+12ne32511 0.0 101240
03:00+13ene43440 0.0 101139
06:00+13ene32550 0.0 101232
09:00+21w114577 0.0 1012277
12:00+24w12377 0.0 1011640
15:00+27wsw12325 0.0 1010685
18:00+23n2257100 0.0 100914
21:00+19ene43459 0.0 101043
14 may, fri
fri1400:00+17ene43380 0.0 101136
03:00+17ne43350 0.0 101140
06:00+16ene32470 0.0 101130
09:00+24wsw11390 0.0 1010242
12:00+26wsw21340 0.0 1011502
15:00+27wnw11350 0.0 1011543
18:00+23nw22610 0.0 101024
21:00+19ne21600 0.0 101120
15 may, sat
sat1500:00+18e2159100 0.0 101219
03:00+17ene01662 0.0 101316
06:00+16e22730 0.0 101331
09:00+20sw22671 0.0 1014326
12:00+22sw32645 0.0 1014497
15:00+22wsw21635 0.0 1012393
18:00+19ssw12770 0.0 1012114
21:00+15se11900 0.0 101223
16 may, sun
sun1600:00+16ene11810 0.0 101117
03:00+16ne11720 0.0 100914
06:00+17ne22685 0.0 100719
09:00+23w11545 0.0 1006300
12:00+25w225346 0.0 1004544
15:00+27wnw224751 0.0 1002593
18:00+24wnw117037 0.0 100122
21:00+20ne216974 0.0 100423
17 may, mon
mon1700:00+16wnw12839 0.0 100536
03:00+17ne217187 0.0 100518
06:00+15sse2389100 0.2 1007131
09:00+16sw1186100 0.2 1009345
12:00+17sw227873 0.0 1011524
15:00+17sw218047 0.1 1012489
18:00+16sw228885 0.0 1013371
21:00+14e1196100 0.1 101551